Printer-friendly version

IAU Minor Planet Center

Minor Planet Center

MPEC 2007-U41 : 2007 UU3

The following Minor Planet Electronic Circular may be linked-to from your own Web pages, but must not otherwise be redistributed electronically.


Read MPEC 2007-U40 Read MPEC 2007-U42


M.P.E.C. 2007-U41                                Issued 2007 Oct. 20, 15:33 UT

     The Minor Planet Electronic Circulars contain information on unusual
         minor planets and routine data on comets.  They are published
   on behalf of Commission 20 of the International Astronomical Union by the
          Minor Planet Center, Smithsonian Astrophysical Observatory,
                          Cambridge, MA 02138, U.S.A.

             Prepared using the Tamkin Foundation Computer Network

                              MPC@CFA.HARVARD.EDU
          URL http://www.cfa.harvard.edu/iau/mpc.html  ISSN 1523-6714

                                   2007 UU3

Observations:
     K07U03U* C2007 10 19.30120 03 52 51.03 +00 49 39.9          19.4   EU041704
     K07U03U  C2007 10 19.31187 03 53 02.45 +00 49 11.5          19.7   EU041704
     K07U03U  C2007 10 19.32254 03 53 13.83 +00 48 42.5          19.3   EU041704
     K07U03U  C2007 10 19.33320 03 53 25.28 +00 48 14.2          19.4   EU041704
     K07U03U  C2007 10 19.34387 03 53 36.77 +00 47 44.8          19.8   EU041704
     K07U03U  C2007 10 20.36345 04 13 44.91 -00 00 53.6          18.9 V EU041703
     K07U03U  C2007 10 20.36946 04 13 52.25 -00 01 11.9          19.1 V EU041703
     K07U03U  C2007 10 20.37550 04 13 59.40 -00 01 29.8          19.4 V EU041703
     K07U03U  C2007 10 20.38152 04 14 06.58 -00 01 47.2          19.0 V EU041703

Observer details:
703 Catalina Sky Survey.  Observer R. A. Kowalski.  Measurers E. C. Beshore,
    A. Boattini, G. J. Garradd, A. R. Gibbs, A. D. Grauer, R. E. Hill,
    R. A. Kowalski, S. M. Larson, R. H. McNaught.  0.68-m Schmidt + CCD.
704 Lincoln Laboratory ETS, New Mexico.  Observers M. Bezpalko, D. Torres,
    R. Kracke, G. Spitz, J. Kistler.  Measurers J. Stuart, S. Scruggs.  1.0-m
    f/2.15 reflector + CCD.

Orbital elements:
2007 UU3                                                 Earth MOID = 0.0258 AU
Epoch 2007 Oct. 27.0 TT = JDT 2454400.5                 MPC
M 347.74882              (2000.0)            P               Q
n   0.39063979     Peri.  255.29382     +0.24881196     -0.96855179
a   1.8533256      Node   180.29922     +0.90391090     +0.23228712
e   0.4991731      Incl.    2.39140     +0.34790472     +0.08916352
P   2.52           H   23.6           G   0.15           U   9
Residuals in seconds of arc
071019 704  0.3+  0.2-    071019 704  0.3-  0.4+    071020 703  1.3+  0.4-
071019 704  0.1+  0.1+    071019 704  0.5+  0.1-    071020 703  0.0   0.1-
071019 704  0.7-  0.1-    071020 703  0.9-  0.3-    071020 703  0.4-  0.7+

Ephemeris:
2007 UU3                 a,e,i = 1.85, 0.50, 2                   q = 0.9282
Date    TT    R. A. (2000) Decl.     Delta      r     Elong.  Phase     V
2007 10 17    03 15.17   +02 21.0    0.0696   1.059   152.0    26.3    19.1
2007 10 18    03 30.28   +01 45.1    0.0654   1.053   149.0    29.2    19.1
2007 10 19    03 47.26   +01 04.3    0.0616   1.048   145.5    32.6    19.0
2007 10 20    04 06.27   +00 18.4    0.0582   1.042   141.6    36.4    19.0
2007 10 21    04 27.37   -00 32.4    0.0552   1.037   137.1    40.8    19.0
2007 10 22    04 50.54   -01 27.6    0.0528   1.032   132.1    45.7    19.0
2007 10 23    05 15.54   -02 25.9    0.0510   1.026   126.7    51.0    19.1
2007 10 24    05 41.98   -03 25.4    0.0499   1.021   120.9    56.7    19.2
2007 10 25    06 09.23   -04 23.5    0.0495   1.016   115.0    62.5    19.3
2007 10 26    06 36.58   -05 17.8    0.0497   1.012   109.0    68.3    19.5
2007 10 27    07 03.28   -06 06.2    0.0507   1.007   103.2    74.0    19.7
2007 10 28    07 28.69   -06 47.6    0.0523   1.002    97.8    79.2    20.0
2007 10 29    07 52.35   -07 21.5    0.0545   0.998    92.9    84.0    20.2
2007 10 30    08 14.03   -07 48.5    0.0572   0.993    88.4    88.3    20.5
2007 10 31    08 33.64   -08 09.3    0.0603   0.989    84.5    92.0    20.7
2007 11 01    08 51.24   -08 25.1    0.0638   0.985    81.1    95.2    21.0
2007 11 02    09 06.97   -08 36.8    0.0677   0.981    78.2    97.9    21.2
2007 11 03    09 21.01   -08 45.4    0.0718   0.977    75.7   100.2    21.5
2007 11 04    09 33.55   -08 51.5    0.0761   0.973    73.6   102.1    21.7
2007 11 05    09 44.78   -08 55.9    0.0805   0.970    71.8   103.7    21.9
2007 11 06    09 54.86   -08 58.9    0.0852   0.966    70.3   105.0    22.1

Timothy B. Spahr             (C) Copyright 2007 MPC           M.P.E.C. 2007-U41

Read MPEC 2007-U40 Read MPEC 2007-U42


Our Web policy. Index to the CBAT/MPC/ICQ pages.


Valid HTML 4.01!